Skip Page Navigation
NASA JPL Caltech
NASA Logo - Jet Propulsion Laboratory + View the NASA Portal
+ Center for Near-Earth Object Studies
JPL Home Earth Solar System Stars & Galaxies Technology
JPL Solar System Dynamics
BODIES ORBITS EPHEMERIDES TOOLS PHYSICAL DATA DISCOVERY FAQ SITE MAP
JPL Small-Body Database Browser
Search: [ help ]  
214784 (2006 UG105)
Classification: Main-belt Asteroid          SPK-ID: 2214784
Ephemeris | Orbit Diagram | Orbital Elements | Mission Design | Physical Parameters | Discovery Circumstances ]

[ show orbit diagram ]
Orbital Elements at Epoch 2459000.5 (2020-May-31.0) TDB
Reference: JPL 12 (heliocentric ecliptic J2000)
 Element Value Uncertainty (1-sigma)   Units 
e .1430724729794293 6.2785e-08  
a 2.315262598920825 1.4214e-08 au
q 1.984012253296442 1.4512e-07 au
i 6.455851536073696 1.0149e-05 deg
node 194.9878444547079 4.9833e-05 deg
peri 144.645928834264 6.1955e-05 deg
M 359.6047556741738 3.968e-05 deg
tp 2459001.912739064372
(2020-Jun-01.41273906)
0.00014184 TDB
period 1286.763730537353
3.52
1.185e-05
3.244e-08
d
yr
n .2797716406334082 2.5764e-09 deg/d
Q 2.646512944545207 1.6247e-08 au
  Orbit Determination Parameters
   # obs. used (total)      244  
   data-arc span      21436 days (58.69 yr)  
   first obs. used      1960-09-24  
   last obs. used      2019-06-03  
   planetary ephem.      DE431  
   SB-pert. ephem.      SB431-N16  
   condition code      0  
   norm. resid. RMS      .48581  
   source      ORB  
   producer      Otto Matic  
   solution date      2020-Feb-25 03:15:14  

Additional Information
 Earth MOID = .97995 au 
 Jupiter MOID = 2.7503 au 
 T_jup = 3.559 
[ show covariance matrix ]

Ephemeris | Orbit Diagram | Orbital Elements | Mission Design | Physical Parameters | Discovery Circumstances ]

Physical Parameter Table
Parameter Symbol Value Units Sigma Reference Notes
absolute magnitude H 17.1   n/a MPO232253  

214784 (2006 UG105)          Discovered 2006-Oct-18 by Spacewatch at Kitt Peak
Reference: 20090509/Numbers.arcLast Updated: 2009-05-11
Ephemeris | Orbit Diagram | Orbital Elements | Mission Design | Physical Parameters | Discovery Circumstances ]
ABOUT SSD CREDITS/AWARDS PRIVACY/COPYRIGHT GLOSSARY LINKS
FirstGov 2020-Aug-15 05:18 UT
(server date/time)  
NASA Home Page
Site Manager:   Ryan S. Park
Webmaster  Alan B. Chamberlin